Regional Weather Roundup
Issued by NWS

Home | Current Version | Previous Version | Text Only | Print | Product List | Glossary Off
Versions: 1 2 3 4 5 6 7 8 9 10 11 12 13 14 15 16 17 18 19 20 21 22 23 24 25 26 27 28 29 30 31 32 33 34 35 36 37 38 39 40 41 42 43 44 45 46 47 48 49 50

000
ASUS43 KMKX 221600
RWRWI

WISCONSIN REGIONAL WEATHER ROUNDUP
NATIONAL WEATHER SERVICE MILWAUKEE/SULLIVAN WI
1100 AM CDT TUE AUG 22 2017

NOTE: "FAIR" INDICATES FEW OR NO CLOUDS BELOW 12,000 FEET WITH NO
SIGNIFICANT WEATHER AND/OR OBSTRUCTIONS TO VISIBILITY.

WIZ001-002-006>008-014>016-023>028-221700-
NORTHWEST WISCONSIN

CITY           SKY/WX    TMP DP  RH WIND       PRES   REMARKS
SUPERIOR ARPT    N/A     65  56  71 W10       29.94S
ASHLAND        SUNNY     67  53  61 W12       29.92R
HAYWARD        SUNNY     65  49  56 W9        29.96S
SIREN          SUNNY     66  51  58 NW8       30.00R
CUMBERLAND     SUNNY     63  50  63 NW10G20   29.99R
RICE LAKE      SUNNY     65  50  58 NW9G18    30.00R
CHETEK         SUNNY     66  54  65 NW8       29.99R
LADYSMITH      SUNNY     65  50  57 NW14G24   29.97S
EAU CLAIRE     NOT AVBL
MENOMONIE      SUNNY     66  52  60 NW15G21   30.00R
NEW RICHMOND   SUNNY     66  52  60 NW10G20   30.02S
OSCEOLA        SUNNY     67  53  61 NW10      30.05R
$$

WIZ003>005-009-010-017-018-221700-
NORTH CENTRAL WISCONSIN

CITY           SKY/WX    TMP DP  RH WIND       PRES   REMARKS
MANITOWISH WTR PTSUNNY   60  52  74 NW13G20   29.90R
ARBOR VITAE    MOSUNNY   62  52  68 NW12      29.90R
WOODRUFF       MOSUNNY   62  52  68 NW12      29.90R
RHINELANDER    PTSUNNY   64  52  64 W10G23    29.90R
EAGLE RIVER    MOSUNNY   63  51  65 NW13G18   29.88R
LAND O LAKES   MOSUNNY   62  52  71 NW12G23   29.88R
PHILLIPS       MOSUNNY   62  51  67 NW10G18   29.93R
TOMAHAWK         N/A     61  51  69 NW14G22   29.92R
MEDFORD        MOSUNNY   63  52  68 NW12G18   29.94R
MERRILL        MOSUNNY   64  52  63 NW14G20   29.91R
$$

WIZ029-030-035-036-043>047-221700-
CENTRAL WISCONSIN

CITY           SKY/WX    TMP DP  RH WIND       PRES   REMARKS
WAUSAU         MOSUNNY   67  51  56 NW15G24   29.90R
MOSINEE        MOSUNNY   66  54  63 NW15G22   29.93R
MARSHFIELD     MOSUNNY   66  50  56 NW21G26   29.94R
STEVENS POINT  PTSUNNY   66  52  61 NW13G18   29.92R
WAUPACA        MOSUNNY   71  53  52 NW15G24   29.89R
WAUTOMA        PTSUNNY   68  54  60 NW15G22   29.91R
WISC RAPIDS    MOSUNNY   70  54  56 NW16G25   29.94R
CAMP DOUGLAS   NOT AVBL
$$

WIZ011>013-019>022-031-037>040-048>050-221700-
NORTHEAST WISCONSIN

CITY           SKY/WX    TMP DP  RH WIND       PRES   REMARKS
ANTIGO         PTSUNNY   62  52  69 NW15G22   29.90R
SHAWANO        SUNNY     70  54  56 NW9       29.86R
OCONTO         MOSUNNY   69  54  57 NW15      29.82R
STURGEON BAY   NOT AVBL
GREEN BAY      MOSUNNY   70  57  63 NW18G26   29.85R
MANITOWOC      NOT AVBL
APPLETON       PTSUNNY   70  48  46 NW21G26   29.86R
CLINTONVILLE   MOSUNNY   68  50  52 NW10G22   29.87R
OSHKOSH        MOSUNNY   70  56  61 NW17G24   29.87R
$$

WIZ032>034-041-042-053>061-221700-
SOUTHWEST WISCONSIN

CITY           SKY/WX    TMP DP  RH WIND       PRES   REMARKS
LA CROSSE      PTSUNNY   73  54  51 NW15G24   29.98R
SPARTA         MOSUNNY   68  55  62 NW14G21   29.97R
VIROQUA        PTSUNNY   67  58  72 NW12G18   29.98R
BOSCOBEL       MOSUNNY   73  57  57 NW14G20   29.97R
PRAIRIE DU CHI MOSUNNY   70  55  58 NW12G18   29.98R
PLATTEVILLE    MOSUNNY   70  62  76 NW13      29.97R
$$

WIZ056-057-062-063-064-067-068-221700-
SOUTH CENTRAL WISCONSIN

CITY           SKY/WX    TMP DP  RH WIND       PRES   REMARKS
REEDSBURG      MOSUNNY   71  55  58 NW14      29.93R
BARABOO/DELLS  PTSUNNY   69  53  56 NW9G20    29.93R
LONE ROCK      NOT AVBL
MINERAL POINT  MOSUNNY   72  61  68 NW12G17   29.96R
MADISON        PTSUNNY   72  59  63 NW9G18    29.91R
MIDDLETON      PTSUNNY   72  60  65 NW12      29.92R
WATERTOWN      MOSUNNY   71  61  70 NW15G21   29.88R
MONROE         PTSUNNY   70  61  73 NW9G16    29.93S
JANESVILLE     MOSUNNY   75  63  64 NW13G18   29.90R
$$

WIZ051-052-058>065-066-070>072-221700-
SOUTHEAST WISCONSIN

CITY           SKY/WX    TMP DP  RH WIND       PRES   REMARKS
MILWAUKEE      PTSUNNY   76  62  62 W14G28    29.85R
WAUKESHA       PTSUNNY   70  59  68 W17       29.88R
MILWAUKEE/TIMM MOSUNNY   73  57  56 W16G25    29.86R
RACINE         CLOUDY    75  64  68 W14G22    29.87R
KENOSHA        CLOUDY    73  63  70 NW17      29.87R
FOND DU LAC    MOSUNNY   71  54  54 NW16G26   29.88R
SHEBOYGAN      MOSUNNY   72  62  71 N16G25    29.84R
WEST BEND      MOSUNNY   72  61  68 W14G20    29.85R
JUNEAU         PTSUNNY   69  59  70 NW13G21   29.89R
$$

LSZ147-162-221700-
LAKE SUPERIOR

STATION/POSITION TIME  TEMP    WIND        PRES    WAVE
                       AIR SEA DIR/SP/G            HT/PER
                 (UTC) (F)     (DEG/KT/KT) (MB)    (FT/S)
W MID LAKE BUOY  1450   60 60  280/ 17/ 21 1009.6F   3/ 4
DEVILS ISLAND    1500   60     270/ 17/ 21 1011.7F
SAXON HARBOR     1530   63     300/ 12/ 20 1012.2S
$$

LMZ867-665-643>646-221700-
LAKE MICHIGAN

STATION/POSITION TIME  TEMP    WIND        PRES    WAVE
                       AIR SEA DIR/SP/G            HT/PER
                 (UTC) (F)     (DEG/KT/KT) (MB)    (FT/S)
S GREEN BAY BUOY 1530   67 71  300/ 16/ 19 1009.7R
N MID LAKE BUOY  1450   63 67  300/ 21/ 25 1007.4R   4/ 4
NORTHPORT PIER   1540   67     310/ 16/ 23 1008.8R
KEWAUNEE LAKESHO 1530   68     320/ 10/ 19 1008.8R
SHEBOYGAN LAKESH 1500   71     300/ 13/ 21 1008.9R
PORT WASHINGTON  1530   75     300/  6/ 22 1011.2R
ATWATER BUOY     1409   69 65  270/ 14/ 17 1010.3R
MILWAUKEE LAKESH 1540   72     290/ 11/ 16   N/A
S MID LAKE BUOY  1450   70 71  300/ 19/ 23 1009.8R   4/ 4
KENOSHA   LAKESH 1500   71     280/ 16/ 23 1010.5
$$

TC  - TEMPERATURE IN CELSIUS
VSB - VISIBILITY IN STATUTE MILES
WCI - WIND CHILL INDEX
HX  - HEAT INDEX





USA.gov is the U.S. government's official web portal to all federal, state and local government web resources and services.